{"data":{"norad_id":63679,"intl_designator":"2025-085R","name":"STARLINK-33850","alt_names":[],"object_type":"PAYLOAD","status":"ACTIVE","operator":null,"country":"US","launch_date":"2025-04-28","launch_site_code":"AFETR","launch_vehicle":null,"mission":null,"orbit_class":"UNKNOWN","rcs_meters":null,"size_class":null,"mass_kg":null,"dimensions":null,"purposes":["comms"],"wikipedia_slug":null,"has_3d_model":false,"image_url":null,"decayed_at":null,"tle_current":{"epoch":"2026-05-24T22:50:10.184928Z","epoch_age_seconds":79541,"freshness":"FRESH","line1":"1 63679U 25085R   26144.95150677  .00012757  00000+0  47211-3 0  9997","line2":"2 63679  43.0015 320.1912 0001747 265.7387  94.3265 15.27594319 60529","mean_motion":15.27594319,"eccentricity":0.0001747,"inclination_deg":43.0015,"raan_deg":320.1912,"arg_perigee_deg":265.7387,"mean_anomaly_deg":94.3265,"bstar":0.00047211,"rev_number":6052,"period_min":94.265865098442,"perigee_km":481.80757841678,"apogee_km":484.2048618579,"semimajor_km":6861.1432201373,"source":"CELESTRAK","updated_at":"2026-05-25T13:38:20.093758Z"}}}